Home > Time Zones > World Clock > Weather > U.S.A. > Waco > Past weeks

Flag for U.S.A. Weather past 2 weeks in Waco, Texas, U.S.A.

Now
54 °F

Clear.


Feels Like: 51 °F
Forecast: 46 / 73 °F
Wind: 9 mph from Southwest

Location: Waco Regional Airport

Current Time: Jan 26, 2015 at 8:11:16 PM

Latest Report: Jan 26, 2015 at 7:51 PM


Visibility: 10 mi

Pressure: 30.11 "Hg

Humidity: 59%

Dew point: 40 °F

Location of WacoLocation

Historic Weather in Waco — Graph

°F

Waco temperature yesterday

Maximum temperature yesterday: 68 °F (at 2:51 PM)
Minimum temperature yesterday: 36 °F (at 4:51 AM)
Average temperature yesterday: 50 °F

Past Weeks' High & Low Weather Summary

 TemperatureHumidityPressure
High73 °F (Jan 26, 2:51 PM)100% (Jan 12, 4:01 AM)30.50 "Hg (Jan 12, 4:01 AM)
Low28 °F (Jan 16, 5:51 AM)20% (Jan 25, 3:51 PM)29.89 "Hg (Jan 20, 2:51 PM)
Average45 °F73%30.19 "Hg
* Reported Jan 11 6:51 PM — Jan 26 6:51 PM, Waco, Weather by CustomWeather, © 2014

Note: Actual official high and low records may vary slightly from our data, if they occured in-between our weather recording intervals... More about our weather records

Advertising

Waco weather history for previous 24 hours

 ConditionsComfort  
Time TempWeatherWind HumidityBarometerVisibility
6:51 PM
Jan 26
52 °FClear.6 mph64%30.11 "Hg10 mi
5:51 PM60 °FSunny.5 mph44%30.10 "Hg10 mi
4:51 PM70 °FSunny.8 mph30%30.10 "Hg10 mi
3:51 PM73 °FSunny.8 mph26%30.11 "Hg10 mi
2:51 PM73 °FSunny.8 mph26%30.12 "Hg10 mi
1:51 PM70 °FSunny.8 mph30%30.14 "Hg10 mi
12:51 PM67 °FSunny.9 mph32%30.18 "Hg10 mi
11:51 AM61 °FSunny.7 mph35%30.23 "Hg10 mi
10:51 AM57 °FSunny.7 mph44%30.25 "Hg10 mi
9:51 AM50 °FSunny.7 mph59%30.26 "Hg10 mi
8:51 AM42 °FSunny.7 mph73%30.27 "Hg10 mi
7:51 AM33 °FSunny.6 mph88%30.25 "Hg10 mi
6:51 AM30 °FClear.6 mph89%30.23 "Hg10 mi
5:51 AM34 °FClear.3 mph82%30.20 "Hg10 mi
4:51 AM31 °FClear.3 mph89%30.22 "Hg10 mi
3:51 AM35 °FClear.5 mph78%30.21 "Hg10 mi
2:51 AM38 °FClear.6 mph76%30.21 "Hg10 mi
1:51 AM37 °FClear.No wind76%30.21 "Hg10 mi
12:51 AM38 °FClear.3 mph73%30.21 "Hg10 mi
11:51 PM
Jan 25
44 °FClear.5 mph58%30.20 "Hg10 mi
10:51 PM45 °FClear.10 mph56%30.19 "Hg10 mi
9:51 PM42 °FClear.9 mph65%30.19 "Hg10 mi
8:51 PM43 °FClear.7 mph56%30.17 "Hg10 mi
Weather by CustomWeather, © 2014

See weather overviewHow to use our weather pages